Regional Weather Roundup
Issued by NWS

Home | Current Version | Previous Version | Graphics & Text | Print | Product List | Glossary On
Versions: 1 2 3 4 5 6 7 8 9 10 11 12 13 14 15 16 17 18 19 20 21 22 23 24
000
ASUS45 KCYS 220310
RWRWY

WYOMING REGIONAL WEATHER ROUNDUP
NATIONAL WEATHER SERVICE CHEYENNE WY
900 PM MDT TUE MAR 21 2017

NOTE:  "FAIR" INDICATES FEW OR NO CLOUDS BELOW 12,000 FEET
WITH NO SIGNIFICANT WEATHER AND/OR OBSTRUCTIONS TO VISIBILITY.

WYZ001-220400-
YELLOWSTONE NATIONAL PARK

CITY           SKY/WX    TMP DP  RH WIND       PRES   REMARKS
LK YELLOWSTONE   N/A     31  30  96 NW3       30.01S
W YELLOWSTONE  NOT AVBL

$$
WYZ002>013-054>058-071-098>099-220400-
NORTHERN WYOMING

CITY           SKY/WX    TMP DP  RH WIND       PRES   REMARKS
JACKSON        FAIR      43  32  65 CALM      29.96R
CODY           FAIR      38  36  92 NE3       29.96S
GREYBULL       FAIR      46  40  79 E3        29.93F
WORLAND        FAIR      43  40  89 NE7       29.93F
SHERIDAN       FAIR      41  36  82 SE13      29.96S
BUFFALO        CLOUDY    38  34  85 S18G28    30.00R WCI  28
GILLETTE       CLOUDY    36  33  89 S23       30.05R WCI  24
HULETT         FAIR      32  30  93 E7        30.08F WCI  26
NEWCASTLE      FAIR      34  28  80 S10       30.11F WCI  26

$$
WYZ014>020-022>026-101>103-220400-
CENTRAL WYOMING

CITY           SKY/WX    TMP DP  RH WIND       PRES   REMARKS
BIG PINEY      FAIR      35  32  88 N5        30.02S WCI  31
PINEDALE       CLOUDY    39  32  75 E3        30.04R
DUBOIS         FAIR      41  32  70 CALM      30.00R
LANDER         FAIR      46  37  71 W5        29.95S
RIVERTON       FAIR      43  37  79 NW8       29.96S
CASPER         FAIR      47  43  86 E16       29.99F
DOUGLAS        CLOUDY    47  39  74 SE16      30.06R

$$
WYZ021-027>030-104>119-220400-
SOUTHERN WYOMING

CITY           SKY/WX    TMP DP  RH WIND       PRES   REMARKS
EVANSTON       FAIR      50  26  39 SW15      29.98F
KEMMERER         N/A     46  28  49 S6        30.02S
FORT BRIDGER   FAIR      48  30  50 S10       30.04S
ROCK SPRINGS   FAIR      52  31  44 S7        30.03R
DIXON            N/A     57  26  30 SW8       30.08R
RAWLINS        CLOUDY    52  25  35 W5        30.04S
SARATOGA       CLOUDY    54  23  30 S10       30.08R
LARAMIE        CLOUDY    45  34  65 SE22G33   30.13R
CHEYENNE       FAIR      45  33  63 SE14      30.14R
TORRINGTON     FAIR      47  35  63 E13       30.11R
PINE BLUFFS    FAIR      45  28  53 SE25G35   30.12R

$$




USA.gov is the U.S. government's official web portal to all federal, state and local government web resources and services.